Year,Month,Day,Hour,Minute,Value (Times are PST for temperature in C)
2013,04,19,00,00,7.80
2013,04,19,00,01,7.80
2013,04,19,00,02,7.80
2013,04,19,00,03,7.80
2013,04,19,00,04,7.80
2013,04,19,00,05,7.80
2013,04,19,00,06,7.90
2013,04,19,00,07,7.80
2013,04,19,00,08,7.80
2013,04,19,00,09,7.80
2013,04,19,00,10,7.80
2013,04,19,00,11,7.80
2013,04,19,00,12,7.90
2013,04,19,00,13,7.90
2013,04,19,00,14,7.90
2013,04,19,00,15,7.80
2013,04,19,00,16,7.90
2013,04,19,00,17,7.90
2013,04,19,00,18,7.90
2013,04,19,00,19,7.90
2013,04,19,00,20,7.80
2013,04,19,00,21,7.80
2013,04,19,00,22,7.90
2013,04,19,00,23,7.90
2013,04,19,00,24,7.90
2013,04,19,00,25,7.90
2013,04,19,00,26,7.90
2013,04,19,00,27,7.90
2013,04,19,00,28,7.90
2013,04,19,00,29,7.90
2013,04,19,00,30,7.90
2013,04,19,00,31,7.90
2013,04,19,00,32,7.90
2013,04,19,00,33,7.90
2013,04,19,00,34,7.90
2013,04,19,00,35,7.90
2013,04,19,00,36,7.90
2013,04,19,00,37,7.90
2013,04,19,00,38,7.90
2013,04,19,00,39,7.90
2013,04,19,00,40,7.90
2013,04,19,00,41,7.90
2013,04,19,00,42,7.90
2013,04,19,00,43,7.90
2013,04,19,00,44,7.90
2013,04,19,00,45,7.90
2013,04,19,00,46,7.90
2013,04,19,00,47,7.90
2013,04,19,00,48,7.90
2013,04,19,00,49,7.90
2013,04,19,00,50,7.90
2013,04,19,00,51,7.90
2013,04,19,00,52,7.90
2013,04,19,00,53,7.90
2013,04,19,00,54,7.90
2013,04,19,00,55,7.90
2013,04,19,00,56,7.90
2013,04,19,00,57,7.90
2013,04,19,00,58,7.90
2013,04,19,00,59,7.90
2013,04,19,01,00,7.90
2013,04,19,01,01,7.90
2013,04,19,01,02,7.90
2013,04,19,01,03,7.90
2013,04,19,01,04,7.90
2013,04,19,01,05,7.90
2013,04,19,01,06,7.90
2013,04,19,01,07,7.90
2013,04,19,01,08,7.90
2013,04,19,01,09,7.90
2013,04,19,01,10,7.90
2013,04,19,01,11,7.90
2013,04,19,01,12,7.90
2013,04,19,01,13,7.90
2013,04,19,01,14,7.90
2013,04,19,01,15,7.90
2013,04,19,01,16,7.90
2013,04,19,01,17,7.90
2013,04,19,01,18,7.90
2013,04,19,01,19,7.90
2013,04,19,01,20,7.90
2013,04,19,01,21,7.90
2013,04,19,01,22,7.90
2013,04,19,01,23,7.90
2013,04,19,01,24,7.90
2013,04,19,01,25,7.90
2013,04,19,01,26,7.90
2013,04,19,01,27,7.90
2013,04,19,01,28,7.90
2013,04,19,01,29,7.90
2013,04,19,01,30,7.90
2013,04,19,01,31,7.90
2013,04,19,01,32,7.90
2013,04,19,01,33,7.90
2013,04,19,01,34,7.90
2013,04,19,01,35,7.90
2013,04,19,01,36,7.90
2013,04,19,01,37,7.90
2013,04,19,01,38,7.90
2013,04,19,01,39,7.90
2013,04,19,01,40,7.90
2013,04,19,01,41,7.90
2013,04,19,01,42,7.90
2013,04,19,01,43,7.90
2013,04,19,01,44,7.90
2013,04,19,01,45,7.90
2013,04,19,01,46,7.90
2013,04,19,01,47,7.90
2013,04,19,01,48,7.90
2013,04,19,01,49,7.90
2013,04,19,01,50,7.90
2013,04,19,01,51,7.90
2013,04,19,01,52,7.90
2013,04,19,01,53,7.80
2013,04,19,01,54,7.80
2013,04,19,01,55,7.80
2013,04,19,01,56,7.80
2013,04,19,01,57,7.80
2013,04,19,01,58,7.80
2013,04,19,01,59,7.80
2013,04,19,02,00,7.80
2013,04,19,02,01,7.80
2013,04,19,02,02,7.80
2013,04,19,02,03,7.80
2013,04,19,02,04,7.80
2013,04,19,02,05,7.80
2013,04,19,02,06,7.80
2013,04,19,02,07,7.80
2013,04,19,02,08,7.80
2013,04,19,02,09,7.80
2013,04,19,02,10,7.80
2013,04,19,02,11,7.80
2013,04,19,02,12,7.80
2013,04,19,02,13,7.80
2013,04,19,02,14,7.80
2013,04,19,02,15,7.80
2013,04,19,02,16,7.80
2013,04,19,02,17,7.80
2013,04,19,02,18,7.80
2013,04,19,02,19,7.80
2013,04,19,02,20,7.80
2013,04,19,02,21,7.80
2013,04,19,02,22,7.80
2013,04,19,02,23,7.80
2013,04,19,02,24,7.80
2013,04,19,02,25,7.80
2013,04,19,02,26,7.80
2013,04,19,02,27,7.80
2013,04,19,02,28,7.80
2013,04,19,02,29,7.80
2013,04,19,02,30,7.80
2013,04,19,02,31,7.80
2013,04,19,02,32,7.80
2013,04,19,02,33,7.80
2013,04,19,02,34,7.80
2013,04,19,02,35,7.80
2013,04,19,02,36,7.80
2013,04,19,02,37,7.80
2013,04,19,02,38,7.80
2013,04,19,02,39,7.80
2013,04,19,02,40,7.80
2013,04,19,02,41,7.80
2013,04,19,02,42,7.90
2013,04,19,02,43,7.90
2013,04,19,02,44,7.90
2013,04,19,02,45,7.90
2013,04,19,02,46,7.90
2013,04,19,02,47,7.90
2013,04,19,02,48,7.90
2013,04,19,02,49,7.90
2013,04,19,02,50,7.90
2013,04,19,02,51,7.90
2013,04,19,02,52,7.90
2013,04,19,02,53,7.90
2013,04,19,02,54,7.90
2013,04,19,02,55,7.90
2013,04,19,02,56,7.90
2013,04,19,02,57,7.90
2013,04,19,02,58,7.90
2013,04,19,02,59,7.90
2013,04,19,03,00,7.90
2013,04,19,03,01,7.90
2013,04,19,03,02,7.90
2013,04,19,03,06,7.90
2013,04,19,03,07,7.90
2013,04,19,03,08,7.90
2013,04,19,03,09,7.90
2013,04,19,03,10,7.90
2013,04,19,03,11,7.90
2013,04,19,03,12,7.90
2013,04,19,03,13,7.90
2013,04,19,03,14,7.90
2013,04,19,03,15,7.90
2013,04,19,03,16,7.90
2013,04,19,03,17,7.90
2013,04,19,03,18,7.90
2013,04,19,03,19,7.90
2013,04,19,03,20,7.90
2013,04,19,03,21,7.90
2013,04,19,03,22,7.90
2013,04,19,03,23,7.90
2013,04,19,03,24,7.90
2013,04,19,03,25,7.90
2013,04,19,03,26,7.90
2013,04,19,03,27,7.90
2013,04,19,03,28,7.90
2013,04,19,03,29,7.90
2013,04,19,03,30,7.90
2013,04,19,03,31,7.90
2013,04,19,03,32,7.90
2013,04,19,03,33,7.90
2013,04,19,03,34,7.90
2013,04,19,03,35,7.90
2013,04,19,03,36,7.90
2013,04,19,03,37,7.90
2013,04,19,03,38,7.90
2013,04,19,03,39,7.90
2013,04,19,03,40,7.90
2013,04,19,03,41,7.90
2013,04,19,03,42,7.90
2013,04,19,03,43,7.90
2013,04,19,03,44,7.90
2013,04,19,03,45,7.90
2013,04,19,03,46,7.90
2013,04,19,03,47,7.90
2013,04,19,03,48,7.90
2013,04,19,03,49,7.90
2013,04,19,03,50,7.90
2013,04,19,03,51,7.90
2013,04,19,03,52,7.90
2013,04,19,03,53,7.90
2013,04,19,03,54,7.90
2013,04,19,03,55,7.90
2013,04,19,03,56,7.90
2013,04,19,03,57,7.90
2013,04,19,03,58,7.90
2013,04,19,03,59,7.90
2013,04,19,04,00,7.90
2013,04,19,04,01,7.90
2013,04,19,04,02,7.90
2013,04,19,04,03,7.90
2013,04,19,04,04,7.90
2013,04,19,04,05,7.90
2013,04,19,04,06,7.90
2013,04,19,04,07,7.90
2013,04,19,04,08,7.90
2013,04,19,04,09,7.90
2013,04,19,04,10,7.90
2013,04,19,04,11,7.90
2013,04,19,04,12,7.90
2013,04,19,04,13,7.90
2013,04,19,04,14,7.90
2013,04,19,04,15,7.90
2013,04,19,04,16,7.90
2013,04,19,04,17,7.90
2013,04,19,04,18,7.90
2013,04,19,04,19,7.90
2013,04,19,04,20,7.90
2013,04,19,04,21,7.90
2013,04,19,04,22,7.90
2013,04,19,04,23,7.90
2013,04,19,04,24,7.90
2013,04,19,04,25,7.90
2013,04,19,04,26,7.90
2013,04,19,04,27,7.90
2013,04,19,04,28,7.90
2013,04,19,04,29,7.90
2013,04,19,04,30,7.90
2013,04,19,04,31,7.90
2013,04,19,04,32,7.90
2013,04,19,04,33,7.90
2013,04,19,04,34,7.90
2013,04,19,04,35,7.90
2013,04,19,04,36,7.90
2013,04,19,04,37,7.90
2013,04,19,04,38,7.90
2013,04,19,04,39,7.90
2013,04,19,04,40,7.90
2013,04,19,04,41,7.80
2013,04,19,04,42,7.80
2013,04,19,04,43,7.80
2013,04,19,04,44,7.80
2013,04,19,04,45,7.80
2013,04,19,04,46,7.80
2013,04,19,04,47,7.80
2013,04,19,04,48,7.80
2013,04,19,04,49,7.80
2013,04,19,04,50,7.80
2013,04,19,04,51,7.80
2013,04,19,04,52,7.80
2013,04,19,04,53,7.80
2013,04,19,04,54,7.80
2013,04,19,04,55,7.80
2013,04,19,04,56,7.80
2013,04,19,04,57,7.80
2013,04,19,04,58,7.80
2013,04,19,04,59,7.80
2013,04,19,05,00,7.80
2013,04,19,05,01,7.80
2013,04,19,05,02,7.80
2013,04,19,05,03,7.80
2013,04,19,05,04,7.80
2013,04,19,05,05,7.80
2013,04,19,05,06,7.80
2013,04,19,05,07,7.90
2013,04,19,05,08,7.90
2013,04,19,05,09,7.90
2013,04,19,05,10,7.90
2013,04,19,05,11,7.90
2013,04,19,05,12,7.90
2013,04,19,05,13,7.80
2013,04,19,05,14,7.80
2013,04,19,05,15,7.80
2013,04,19,05,16,7.80
2013,04,19,05,17,7.80
2013,04,19,05,18,7.80
2013,04,19,05,19,7.80
2013,04,19,05,20,7.80
2013,04,19,05,21,7.80
2013,04,19,05,22,7.80
2013,04,19,05,23,7.80
2013,04,19,05,24,7.80
2013,04,19,05,25,7.90
2013,04,19,05,26,7.90
2013,04,19,05,27,7.90
2013,04,19,05,28,7.90
2013,04,19,05,29,7.80
2013,04,19,05,30,7.80
2013,04,19,05,31,7.80
2013,04,19,05,32,7.80
2013,04,19,05,33,7.80
2013,04,19,05,34,7.80
2013,04,19,05,35,7.80
2013,04,19,05,36,7.80
2013,04,19,05,37,7.80
2013,04,19,05,38,7.80
2013,04,19,05,39,7.80
2013,04,19,05,40,7.80
2013,04,19,05,41,7.80
2013,04,19,05,42,7.80
2013,04,19,05,43,7.80
2013,04,19,05,44,7.80
2013,04,19,05,45,7.80
2013,04,19,05,46,7.80
2013,04,19,05,47,7.80
2013,04,19,05,48,7.80
2013,04,19,05,49,7.80
2013,04,19,05,50,7.80
2013,04,19,05,51,7.80
2013,04,19,05,52,7.80
2013,04,19,05,53,7.80
2013,04,19,05,54,7.80
2013,04,19,05,55,7.80
2013,04,19,05,56,7.80
2013,04,19,05,57,7.80
2013,04,19,05,58,7.80
2013,04,19,05,59,7.80
2013,04,19,06,00,7.80
2013,04,19,06,01,7.80
2013,04,19,06,02,7.80
2013,04,19,06,03,7.80
2013,04,19,06,04,7.80
2013,04,19,06,05,7.80
2013,04,19,06,06,7.80
2013,04,19,06,07,7.80
2013,04,19,06,08,7.80
2013,04,19,06,09,7.80
2013,04,19,06,10,7.80
2013,04,19,06,11,7.80
2013,04,19,06,12,7.80
2013,04,19,06,13,7.80
2013,04,19,06,14,7.80
2013,04,19,06,15,7.80
2013,04,19,06,16,7.80
2013,04,19,06,17,7.80
2013,04,19,06,18,7.80
2013,04,19,06,19,7.80
2013,04,19,06,20,7.80
2013,04,19,06,21,7.80
2013,04,19,06,22,7.80
2013,04,19,06,23,7.80
2013,04,19,06,24,7.80
2013,04,19,06,25,7.80
2013,04,19,06,26,7.80
2013,04,19,06,27,7.80
2013,04,19,06,28,7.80
2013,04,19,06,29,7.80
2013,04,19,06,30,7.80
2013,04,19,06,31,7.80
2013,04,19,06,32,7.80
2013,04,19,06,33,7.90
2013,04,19,06,34,7.90
2013,04,19,06,35,7.90
2013,04,19,06,36,7.90
2013,04,19,06,37,7.90
2013,04,19,06,38,7.90
2013,04,19,06,39,7.90
2013,04,19,06,40,7.90
2013,04,19,06,41,7.90
2013,04,19,06,42,7.90
2013,04,19,06,43,8.00
2013,04,19,06,44,7.90
2013,04,19,06,45,8.00
2013,04,19,06,46,8.00
2013,04,19,06,47,8.00
2013,04,19,06,48,8.00
2013,04,19,06,49,8.00
2013,04,19,06,50,8.00
2013,04,19,06,51,8.10
2013,04,19,06,52,8.10
2013,04,19,06,53,8.10
2013,04,19,06,54,8.10
2013,04,19,06,55,8.10
2013,04,19,06,56,8.10
2013,04,19,06,57,8.10
2013,04,19,06,58,8.10
2013,04,19,06,59,8.10
2013,04,19,07,00,8.10
2013,04,19,07,01,8.10
2013,04,19,07,02,8.10
2013,04,19,07,03,8.10
2013,04,19,07,04,8.10
2013,04,19,07,05,8.10
2013,04,19,07,06,8.10
2013,04,19,07,07,8.10
2013,04,19,07,08,8.10
2013,04,19,07,09,8.10
2013,04,19,07,10,8.10
2013,04,19,07,11,8.10
2013,04,19,07,12,8.10
2013,04,19,07,13,8.10
2013,04,19,07,14,8.10
2013,04,19,07,15,8.10
2013,04,19,07,16,8.10
2013,04,19,07,17,8.10
2013,04,19,07,18,8.10
2013,04,19,07,19,8.10
2013,04,19,07,20,8.10
2013,04,19,07,21,8.10
2013,04,19,07,22,8.10
2013,04,19,07,23,8.10
2013,04,19,07,24,8.10
2013,04,19,07,25,8.10
2013,04,19,07,26,8.10
2013,04,19,07,27,8.10
2013,04,19,07,28,8.10
2013,04,19,07,29,8.10
2013,04,19,07,30,8.10
2013,04,19,07,31,8.10
2013,04,19,07,32,8.10
2013,04,19,07,33,8.10
2013,04,19,07,34,8.10
2013,04,19,07,35,8.10
2013,04,19,07,36,8.10
2013,04,19,07,37,8.10
2013,04,19,07,38,8.10
2013,04,19,07,39,8.10
2013,04,19,07,40,8.10
2013,04,19,07,41,8.10
2013,04,19,07,42,8.10
2013,04,19,07,43,8.10
2013,04,19,07,44,8.10
2013,04,19,07,45,8.10
2013,04,19,07,46,8.00
2013,04,19,07,47,8.00
2013,04,19,07,48,8.00
2013,04,19,07,49,8.00
2013,04,19,07,50,8.00
2013,04,19,07,51,8.00
2013,04,19,07,52,8.00
2013,04,19,07,53,8.00
2013,04,19,07,54,8.10
2013,04,19,07,55,8.10
2013,04,19,07,56,8.10
2013,04,19,07,57,8.10
2013,04,19,07,58,8.10
2013,04,19,07,59,8.10
2013,04,19,08,00,8.10
2013,04,19,08,01,8.10
2013,04,19,08,02,8.10
2013,04,19,08,03,8.00
2013,04,19,08,04,8.00
2013,04,19,08,05,8.10
2013,04,19,08,06,8.10
2013,04,19,08,07,8.10
2013,04,19,08,08,8.10
2013,04,19,08,09,8.10
2013,04,19,08,10,8.20
2013,04,19,08,11,8.20
2013,04,19,08,12,8.20
2013,04,19,08,13,8.20
2013,04,19,08,14,8.20
2013,04,19,08,15,8.20
2013,04,19,08,16,8.20
2013,04,19,08,17,8.20
2013,04,19,08,18,8.20
2013,04,19,08,19,8.20
2013,04,19,08,20,8.10
2013,04,19,08,21,8.10
2013,04,19,08,22,8.10
2013,04,19,08,23,8.10
2013,04,19,08,24,8.10
2013,04,19,08,25,8.10
2013,04,19,08,26,8.10
2013,04,19,08,27,8.10
2013,04,19,08,28,8.10
2013,04,19,08,29,8.10
2013,04,19,08,30,8.10
2013,04,19,08,31,8.10
2013,04,19,08,32,8.10
2013,04,19,08,33,8.10
2013,04,19,08,34,8.20
2013,04,19,08,35,8.20
2013,04,19,08,36,8.20
2013,04,19,08,37,8.20
2013,04,19,08,38,8.20
2013,04,19,08,39,8.20
2013,04,19,08,40,8.20
2013,04,19,08,41,8.20
2013,04,19,08,42,8.20
2013,04,19,08,43,8.20
2013,04,19,08,44,8.20
2013,04,19,08,45,8.20
2013,04,19,08,46,8.20
2013,04,19,08,47,8.20
2013,04,19,08,48,8.10
2013,04,19,08,49,8.10
2013,04,19,08,50,8.10
2013,04,19,08,51,8.10
2013,04,19,08,52,8.10
2013,04,19,08,53,8.10
2013,04,19,08,54,8.10
2013,04,19,08,55,8.10
2013,04,19,08,56,8.20
2013,04,19,08,57,8.20
2013,04,19,08,58,8.20
2013,04,19,08,59,8.20
2013,04,19,09,00,8.20
2013,04,19,09,01,8.20
2013,04,19,09,02,8.20
2013,04,19,09,03,8.30
2013,04,19,09,04,8.30
2013,04,19,09,05,8.30
2013,04,19,09,06,8.30
2013,04,19,09,07,8.30
2013,04,19,09,08,8.30
2013,04,19,09,09,8.30
2013,04,19,09,10,8.30
2013,04,19,09,11,8.30
2013,04,19,09,12,8.30
2013,04,19,09,13,8.30
2013,04,19,09,14,8.30
2013,04,19,09,15,8.30
2013,04,19,09,16,8.30
2013,04,19,09,17,8.30
2013,04,19,09,18,8.40
2013,04,19,09,19,8.40
2013,04,19,09,20,8.40
2013,04,19,09,21,8.40
2013,04,19,09,22,8.40
2013,04,19,09,23,8.40
2013,04,19,09,24,8.40
2013,04,19,09,25,8.40
2013,04,19,09,26,8.40
2013,04,19,09,27,8.40
2013,04,19,09,28,8.40
2013,04,19,09,29,8.40
2013,04,19,09,30,8.40
2013,04,19,09,31,8.40
2013,04,19,09,32,8.40
2013,04,19,09,33,8.40
2013,04,19,09,34,8.40
2013,04,19,09,35,8.40
2013,04,19,09,36,8.40
2013,04,19,09,37,8.40
2013,04,19,09,38,8.40
2013,04,19,09,39,8.40
2013,04,19,09,40,8.40
2013,04,19,09,41,8.40
2013,04,19,09,42,8.50
2013,04,19,09,43,8.50
2013,04,19,09,44,8.50
2013,04,19,09,45,8.50
2013,04,19,09,46,8.50
2013,04,19,09,47,8.50
2013,04,19,09,48,8.40
2013,04,19,09,49,8.40
2013,04,19,09,50,8.40
2013,04,19,09,51,8.30
2013,04,19,09,52,8.30
2013,04,19,09,53,8.30
2013,04,19,09,54,8.30
2013,04,19,09,55,8.30
2013,04,19,09,56,8.30
2013,04,19,09,57,8.40
2013,04,19,09,58,8.40
2013,04,19,09,59,8.40
2013,04,19,10,00,8.40
2013,04,19,10,01,8.40
2013,04,19,10,02,8.40
2013,04,19,10,03,8.30
2013,04,19,10,04,8.30
2013,04,19,10,05,8.40
2013,04,19,10,06,8.40
2013,04,19,10,07,8.40
2013,04,19,10,08,8.40
2013,04,19,10,09,8.40
2013,04,19,10,10,8.40
2013,04,19,10,11,8.40
2013,04,19,10,12,8.40
2013,04,19,10,13,8.40
2013,04,19,10,14,8.40
2013,04,19,10,15,8.40
2013,04,19,10,16,8.40
2013,04,19,10,17,8.50
2013,04,19,10,18,8.50
2013,04,19,10,19,8.50
2013,04,19,10,20,8.60
2013,04,19,10,21,8.60
2013,04,19,10,22,8.60
2013,04,19,10,23,8.60
2013,04,19,10,24,8.60
2013,04,19,10,25,8.60
2013,04,19,10,26,8.60
2013,04,19,10,27,8.60
2013,04,19,10,28,8.70
2013,04,19,10,29,8.70
2013,04,19,10,30,8.70
2013,04,19,10,31,8.70
2013,04,19,10,32,8.70
2013,04,19,10,33,8.60
2013,04,19,10,34,8.60
2013,04,19,10,35,8.60
2013,04,19,10,36,8.70
2013,04,19,10,37,8.70
2013,04,19,10,38,8.70
2013,04,19,10,39,8.70
2013,04,19,10,40,8.70
2013,04,19,10,41,8.70
2013,04,19,10,42,8.70
2013,04,19,10,43,8.70
2013,04,19,10,44,8.80
2013,04,19,10,45,8.80
2013,04,19,10,46,8.80
2013,04,19,10,47,8.80
2013,04,19,10,48,8.90
2013,04,19,10,49,8.90
2013,04,19,10,50,9.00
2013,04,19,10,51,9.00
2013,04,19,10,52,9.10
2013,04,19,10,53,9.10
2013,04,19,10,54,9.10
2013,04,19,10,55,9.10
2013,04,19,10,56,9.00
2013,04,19,10,57,9.00
2013,04,19,10,58,9.00
2013,04,19,10,59,9.00
2013,04,19,11,00,8.90
2013,04,19,11,01,8.90
2013,04,19,11,02,9.00
2013,04,19,11,03,9.00
2013,04,19,11,04,9.00
2013,04,19,11,05,9.00
2013,04,19,11,06,9.00
2013,04,19,11,07,9.00
2013,04,19,11,08,9.10
2013,04,19,11,09,9.10
2013,04,19,11,10,9.20
2013,04,19,11,11,9.20
2013,04,19,11,12,9.20
2013,04,19,11,13,9.10
2013,04,19,11,14,9.10
2013,04,19,11,15,9.10
2013,04,19,11,16,9.20
2013,04,19,11,17,9.20
2013,04,19,11,18,9.20
2013,04,19,11,19,9.20
2013,04,19,11,20,9.20
2013,04,19,11,21,9.20
2013,04,19,11,22,9.10
2013,04,19,11,23,9.20
2013,04,19,11,24,9.10
2013,04,19,11,25,9.10
2013,04,19,11,26,9.10
2013,04,19,11,27,9.10
2013,04,19,11,28,9.20
2013,04,19,11,29,9.20
2013,04,19,11,30,9.20
2013,04,19,11,31,9.30
2013,04,19,11,32,9.20
2013,04,19,11,33,9.20
2013,04,19,11,34,9.20
2013,04,19,11,35,9.20
2013,04,19,11,36,9.20
2013,04,19,11,37,9.20
2013,04,19,11,38,9.20
2013,04,19,11,39,9.10
2013,04,19,11,40,9.10
2013,04,19,11,41,9.10
2013,04,19,11,42,9.10
2013,04,19,11,43,9.20
2013,04,19,11,44,9.10
2013,04,19,11,45,9.10
2013,04,19,11,46,9.10
2013,04,19,11,47,9.20
2013,04,19,11,48,9.20
2013,04,19,11,49,9.20
2013,04,19,11,50,9.20
2013,04,19,11,51,9.20
2013,04,19,11,52,9.30
2013,04,19,11,53,9.30
2013,04,19,11,54,9.40
2013,04,19,11,55,9.40
2013,04,19,11,56,9.50
2013,04,19,11,57,9.50
2013,04,19,11,58,9.60
2013,04,19,11,59,9.50
2013,04,19,12,00,9.50
2013,04,19,12,01,9.40
2013,04,19,12,02,9.40
2013,04,19,12,03,9.40
2013,04,19,12,04,9.40
2013,04,19,12,05,9.40
2013,04,19,12,06,9.40
2013,04,19,12,07,9.40
2013,04,19,12,08,9.40
2013,04,19,12,09,9.50
2013,04,19,12,10,9.50
2013,04,19,12,11,9.50
2013,04,19,12,12,9.50
2013,04,19,12,13,9.50
2013,04,19,12,14,9.60
2013,04,19,12,15,9.70
2013,04,19,12,16,9.80
2013,04,19,12,17,9.90
2013,04,19,12,18,9.90
2013,04,19,12,19,9.90
2013,04,19,12,20,9.90
2013,04,19,12,21,10.00
2013,04,19,12,22,10.00
2013,04,19,12,23,10.00
2013,04,19,12,24,10.00
2013,04,19,12,25,10.00
2013,04,19,12,26,10.10
2013,04,19,12,27,10.10
2013,04,19,12,28,10.20
2013,04,19,12,29,10.30
2013,04,19,12,30,10.30
2013,04,19,12,31,10.30
2013,04,19,12,32,10.40
2013,04,19,12,33,10.40
2013,04,19,12,34,10.50
2013,04,19,12,35,10.60
2013,04,19,12,36,10.60
2013,04,19,12,37,10.60
2013,04,19,12,38,10.60
2013,04,19,12,39,10.60
2013,04,19,12,40,10.60
2013,04,19,12,41,10.70
2013,04,19,12,42,10.70
2013,04,19,12,43,10.70
2013,04,19,12,44,10.70
2013,04,19,12,45,10.70
2013,04,19,12,46,10.70
2013,04,19,12,47,10.70
2013,04,19,12,48,10.80
2013,04,19,12,49,10.80
2013,04,19,12,50,10.80
2013,04,19,12,51,10.80
2013,04,19,12,52,10.80
2013,04,19,12,53,10.80
2013,04,19,12,54,10.80
2013,04,19,12,55,10.90
2013,04,19,12,56,11.00
2013,04,19,12,57,11.10
2013,04,19,12,58,11.10
2013,04,19,12,59,11.10
2013,04,19,13,00,11.10
2013,04,19,13,01,11.20
2013,04,19,13,02,11.20
2013,04,19,13,03,11.20
2013,04,19,13,04,11.10
2013,04,19,13,05,11.10
2013,04,19,13,06,11.20
2013,04,19,13,07,11.20
2013,04,19,13,08,11.30
2013,04,19,13,09,11.30
2013,04,19,13,10,11.30
2013,04,19,13,11,11.30
2013,04,19,13,12,11.30
2013,04,19,13,13,11.30
2013,04,19,13,14,11.30
2013,04,19,13,15,11.40
2013,04,19,13,16,11.30
2013,04,19,13,17,11.30
2013,04,19,13,18,11.40
2013,04,19,13,19,11.50
2013,04,19,13,20,11.50
2013,04,19,13,21,11.50
2013,04,19,13,22,11.50
2013,04,19,13,23,11.50
2013,04,19,13,24,11.50
2013,04,19,13,25,11.60
2013,04,19,13,26,11.60
2013,04,19,13,27,11.70
2013,04,19,13,28,11.70
2013,04,19,13,29,11.70
2013,04,19,13,30,11.70
2013,04,19,13,31,11.80
2013,04,19,13,32,11.80
2013,04,19,13,33,11.80
2013,04,19,13,34,11.80
2013,04,19,13,35,11.70
2013,04,19,13,36,11.70
2013,04,19,13,37,11.80
2013,04,19,13,38,11.80
2013,04,19,13,39,11.90
2013,04,19,13,40,12.00
2013,04,19,13,41,12.10
2013,04,19,13,42,12.20
2013,04,19,13,43,12.30
2013,04,19,13,44,12.40
2013,04,19,13,45,12.40
2013,04,19,13,46,12.40
2013,04,19,13,47,12.40
2013,04,19,13,48,12.50
2013,04,19,13,49,12.50
2013,04,19,13,50,12.60
2013,04,19,13,51,12.50
2013,04,19,13,52,12.50
2013,04,19,13,53,12.50
2013,04,19,13,54,12.50
2013,04,19,13,55,12.60
2013,04,19,13,56,12.70
2013,04,19,13,57,12.70
2013,04,19,13,58,12.80
2013,04,19,13,59,12.80
2013,04,19,14,00,12.80
2013,04,19,14,01,12.80
2013,04,19,14,02,12.90
2013,04,19,14,03,12.90
2013,04,19,14,04,12.90
2013,04,19,14,05,13.00
2013,04,19,14,06,13.10
2013,04,19,14,07,13.00
2013,04,19,14,08,13.00
2013,04,19,14,09,12.90
2013,04,19,14,10,12.90
2013,04,19,14,11,12.90
2013,04,19,14,12,12.80
2013,04,19,14,13,12.80
2013,04,19,14,14,12.80
2013,04,19,14,15,12.70
2013,04,19,14,16,12.70
2013,04,19,14,17,12.70
2013,04,19,14,18,12.70
2013,04,19,14,19,12.80
2013,04,19,14,20,12.80
2013,04,19,14,21,12.90
2013,04,19,14,22,12.90
2013,04,19,14,23,12.90
2013,04,19,14,24,13.00
2013,04,19,14,25,13.00
2013,04,19,14,26,13.00
2013,04,19,14,27,13.00
2013,04,19,14,28,13.10
2013,04,19,14,29,13.10
2013,04,19,14,30,13.20
2013,04,19,14,31,13.30
2013,04,19,14,32,13.40
2013,04,19,14,33,13.60
2013,04,19,14,34,13.70
2013,04,19,14,35,13.80
2013,04,19,14,36,13.90
2013,04,19,14,37,14.00
2013,04,19,14,38,14.10
2013,04,19,14,39,14.20
2013,04,19,14,40,14.30
2013,04,19,14,41,14.40
2013,04,19,14,42,14.50
2013,04,19,14,43,14.60
2013,04,19,14,44,14.60
2013,04,19,14,45,14.60
2013,04,19,14,46,14.70
2013,04,19,14,47,14.70
2013,04,19,14,48,14.80
2013,04,19,14,49,14.80
2013,04,19,14,50,14.80
2013,04,19,14,51,14.90
2013,04,19,14,52,14.90
2013,04,19,14,53,14.90
2013,04,19,14,54,15.00
2013,04,19,14,55,15.00
2013,04,19,14,56,15.00
2013,04,19,14,57,15.00
2013,04,19,14,58,15.00
2013,04,19,14,59,15.00
2013,04,19,15,00,15.00
2013,04,19,15,01,15.00
2013,04,19,15,02,15.00
2013,04,19,15,03,15.00
2013,04,19,15,04,15.00
2013,04,19,15,05,15.00
2013,04,19,15,06,15.00
2013,04,19,15,07,15.00
2013,04,19,15,08,15.00
2013,04,19,15,09,15.00
2013,04,19,15,10,15.10
2013,04,19,15,11,15.10
2013,04,19,15,12,15.10
2013,04,19,15,13,15.00
2013,04,19,15,14,15.00
2013,04,19,15,15,15.00
2013,04,19,15,16,15.00
2013,04,19,15,17,15.00
2013,04,19,15,18,15.00
2013,04,19,15,19,15.00
2013,04,19,15,20,15.00
2013,04,19,15,21,15.00
2013,04,19,15,22,15.00
2013,04,19,15,23,14.90
2013,04,19,15,24,14.90
2013,04,19,15,25,15.00
2013,04,19,15,26,15.00
2013,04,19,15,27,15.00
2013,04,19,15,28,15.00
2013,04,19,15,29,15.00
2013,04,19,15,30,15.00
2013,04,19,15,31,15.00
2013,04,19,15,32,15.00
2013,04,19,15,33,15.10
2013,04,19,15,34,15.10
2013,04,19,15,35,15.20
2013,04,19,15,36,15.30
2013,04,19,15,37,15.40
2013,04,19,15,38,15.40
2013,04,19,15,39,15.50
2013,04,19,15,40,15.50
2013,04,19,15,41,15.60
2013,04,19,15,42,15.60
2013,04,19,15,43,15.60
2013,04,19,15,44,15.70
2013,04,19,15,45,15.70
2013,04,19,15,46,15.70
2013,04,19,15,47,15.70
2013,04,19,15,48,15.80
2013,04,19,15,49,15.80
2013,04,19,15,50,15.70
2013,04,19,15,51,15.70
2013,04,19,15,52,15.70
2013,04,19,15,53,15.60
2013,04,19,15,54,15.60
2013,04,19,15,55,15.70
2013,04,19,15,56,15.70
2013,04,19,15,57,15.80
2013,04,19,15,58,15.80
2013,04,19,15,59,15.80
2013,04,19,16,00,15.80
2013,04,19,16,01,15.90
2013,04,19,16,02,15.90
2013,04,19,16,03,15.90
2013,04,19,16,04,16.00
2013,04,19,16,05,16.00
2013,04,19,16,06,15.90
2013,04,19,16,07,15.80
2013,04,19,16,08,15.80
2013,04,19,16,09,15.70
2013,04,19,16,10,15.70
2013,04,19,16,11,15.80
2013,04,19,16,12,16.00
2013,04,19,16,13,16.10
2013,04,19,16,14,16.20
2013,04,19,16,15,16.30
2013,04,19,16,16,16.40
2013,04,19,16,17,16.50
2013,04,19,16,18,16.60
2013,04,19,16,19,16.50
2013,04,19,16,20,16.40
2013,04,19,16,21,16.30
2013,04,19,16,22,16.30
2013,04,19,16,23,16.20
2013,04,19,16,24,16.10
2013,04,19,16,25,16.10
2013,04,19,16,26,16.00
2013,04,19,16,27,15.90
2013,04,19,16,28,15.90
2013,04,19,16,29,15.90
2013,04,19,16,30,15.80
2013,04,19,16,31,15.80
2013,04,19,16,32,15.70
2013,04,19,16,33,15.60
2013,04,19,16,34,15.50
2013,04,19,16,35,15.50
2013,04,19,16,36,15.40
2013,04,19,16,37,15.40
2013,04,19,16,38,15.40
2013,04,19,16,39,15.40
2013,04,19,16,40,15.40
2013,04,19,16,41,15.40
2013,04,19,16,42,15.40
2013,04,19,16,43,15.40
2013,04,19,16,44,15.50
2013,04,19,16,45,15.50
2013,04,19,16,46,15.60
2013,04,19,16,47,15.60
2013,04,19,16,48,15.60
2013,04,19,16,49,15.70
2013,04,19,16,50,15.70
2013,04,19,16,51,15.80
2013,04,19,16,52,15.90
2013,04,19,16,53,15.90
2013,04,19,16,54,15.90
2013,04,19,16,55,15.80
2013,04,19,16,56,15.80
2013,04,19,16,57,15.70
2013,04,19,16,58,15.70
2013,04,19,16,59,15.60
2013,04,19,17,00,15.60
2013,04,19,17,01,15.60
2013,04,19,17,02,15.70
2013,04,19,17,03,15.70
2013,04,19,17,04,15.70
2013,04,19,17,05,15.70
2013,04,19,17,06,15.60
2013,04,19,17,07,15.60
2013,04,19,17,08,15.50
2013,04,19,17,09,15.40
2013,04,19,17,10,15.30
2013,04,19,17,11,15.20
2013,04,19,17,12,15.10
2013,04,19,17,13,15.00
2013,04,19,17,14,15.00
2013,04,19,17,15,15.00
2013,04,19,17,16,15.00
2013,04,19,17,17,14.80
2013,04,19,17,18,14.80
2013,04,19,17,19,14.70
2013,04,19,17,20,14.70
2013,04,19,17,21,14.70
2013,04,19,17,22,14.60
2013,04,19,17,23,14.60
2013,04,19,17,24,14.60
2013,04,19,17,25,14.60
2013,04,19,17,26,14.60
2013,04,19,17,27,14.60
2013,04,19,17,28,14.50
2013,04,19,17,29,14.50
2013,04,19,17,30,14.40
2013,04,19,17,31,14.40
2013,04,19,17,32,14.30
2013,04,19,17,33,14.30
2013,04,19,17,34,14.30
2013,04,19,17,35,14.30
2013,04,19,17,36,14.30
2013,04,19,17,37,14.30
2013,04,19,17,38,14.30
2013,04,19,17,39,14.30
2013,04,19,17,40,14.20
2013,04,19,17,41,14.20
2013,04,19,17,42,14.20
2013,04,19,17,43,14.20
2013,04,19,17,44,14.20
2013,04,19,17,45,14.10
2013,04,19,17,46,14.10
2013,04,19,17,47,14.10
2013,04,19,17,48,14.00
2013,04,19,17,49,14.00
2013,04,19,17,50,14.00
2013,04,19,17,51,14.00
2013,04,19,17,52,14.10
2013,04,19,17,53,14.20
2013,04,19,17,54,14.30